Tracking 25963 objects as of 12-Aug-2022
HD Live streaming from Space Station
objects crossing your sky now

OBJECT V

Track OBJECT V now!
10-day predictions


NORAD ID: 51843
Int'l Code: 2022-019V
Perigee: 528.7 km
Apogee: 552.4 km
Inclination: 97.5 °
Period: 95.3 minutes
Semi major axis: 6911 km
RCS: Unknown
Launch date: February 27, 2022
Source: People's Republic of China (PRC)
Launch site: Wenchang Satellite Launch Center (WSC)
aabbcc
Your satellite tracking list
Your tracking list is empty




NASA's NSSDC Master Catalog

Two Line Element Set (TLE):
1 51843U 22019V   22224.20295789  .00002828  00000-0  17306-3 0  9999
2 51843  97.5127 297.9854 0017192  72.5535  11.9867 15.10910460 25067
Source of the keplerian elements: AFSPC